Location: Ferchesar
(52.6477°N, 12.4298°E)
Time: 02:58:00
(UTC+01:00)

Transit 2A - Pass Details

Date: 07 December 2021
Orbit: 591 x 967 km, 66.7° (Epoch: 17 January)

Event Time Altitude Azimuth Distance (km) Brightness Sun altitude
Exits shadow 04:58:32 22° 349° (N) 1,969 7.9 -27.3°
Maximum altitude 05:00:24 25° 15° (NNE) 1,838 8.0 -27.0°
Drops below altitude 10° 05:05:35 10° 69° (ENE) 2,704 9.7 -26.2°
Sets 05:08:38 0° 83° (E) 3,628 10.8 -25.7°
